Regional Weather Roundup
Issued by NWS

Home | Current Version | Previous Version | Graphics & Text | Print | Product List | Glossary On
Versions: 1 2 3 4 5 6 7 8 9 10 11 12 13 14 15 16 17 18 19 20 21 22 23 24 25 26 27 28 29 30 31 32 33 34 35 36 37 38 39 40 41 42 43 44 45 46 47 48 49 50
000
ASUS43 KIND 272309
RWRIN

WEATHER ROUNDUP FOR INDIANA
NATIONAL WEATHER SERVICE INDIANAPOLIS IN
700 PM EDT FRI MAR 27 2015

NOTE: "FAIR" INDICATES FEW OR NO CLOUDS BELOW 12,000 FEET WITH NO
SIGNIFICANT WEATHER AND/OR OBSTRUCTIONS TO VISIBILITY.

* - STATION DOES NOT REPORT WEATHER SUCH AS PRECIPITATION OR FOG.

+ - STATION NOT QUALITY CONTROLLED BY THE NATIONAL WEATHER SERVICE.
    USE DATA WITH CAUTION...ESPECIALLY DEWPOINT AND RELATIVE
    HUMIDITY OBSERVATIONS.

INZ001>003-010>013-019-020-280000-
NORTHWEST INDIANA

CITY           SKY/WX    TMP DP  RH WIND       PRES   REMARKS
GARY /AIRPORT/ PTSUNNY   28  10  47 N10G32    30.18R WCI  19
KNOX *+          N/A     25  -6  26 N21       30.14R WCI  10
LA PORTE +     FLURRIES  25  14  63 N22       30.15R WCI  11
MICHIGAN CITY+ CLOUDY    25  10  54 N14G21    30.17R WCI  13
MONTICELLO +   FLURRIES  26  17  69 N15       30.13R WCI  14
RENSSELAER +   SUNNY     30  14  51 N10G21    30.15R WCI  21
VALPARAISO     PTSUNNY   24  12  60 N14G22    30.15R WCI  12

$$

LMZ046-743>745-280000-
SOUTHERN LAKE MICHIGAN

STATION/POSITION TIME  TEMP WIND        PRES
                       AIR  DIR/SP/G
                 (UTC) (F)  (DEG/KT/KT) (MB)
BURNS HARBOR     2300   25   20/ 16/ 24 1021.7S
MICHIGAN CITY    2300   24  340/ 21/ 26   N/A

$$

INZ004-005-014>016-021>024-280000-
NORTH CENTRAL INDIANA

CITY           SKY/WX    TMP DP  RH WIND       PRES   REMARKS
ELKHART        MOSUNNY   25   7  46 NW10G20   30.11R WCI  15
GOSHEN         MOSUNNY   26   9  48 NW14G25   30.08R WCI  14
LOGANSPORT +   CLOUDY    28  14  54 NW13G23   30.12R WCI  18
PERU/GRISSOM   CLOUDY    27  11  50 NW15      30.08R WCI  15
ROCHESTER +    PTSUNNY   28  16  59 N13G25    30.12R WCI  18
SOUTH BEND     CLOUDY    24  10  55 N21G26    30.13R WCI   9
WARSAW +       MOSUNNY   27   9  46 NW15G22   30.09R WCI  15

$$

INZ006>009-017-018-025>027-280000-
NORTHEAST INDIANA

CITY           SKY/WX    TMP DP  RH WIND       PRES   REMARKS
ANGOLA *+      MOSUNNY   27   3  36 N8        30.03S WCI  18
AUBURN +       MOSUNNY   30   3  31 NW10      30.05R WCI  21
FORT WAYNE     MOSUNNY   29   9  43 NW12      30.05R WCI  19
HUNTINGTON +   MOSUNNY   29   5  37 NW12G18   30.07R WCI  19

$$

INZ028-029-035-036-043>045-051>053-280000-
WEST CENTRAL INDIANA

CITY           SKY/WX    TMP DP  RH WIND       PRES   REMARKS
CRAWFORDSVL +  PTSUNNY   29   9  42 MISG      30.11R
GREENCASTLE +  CLOUDY    32  12  43 N9G18     30.10R WCI  24
LAFAYETTE      CLOUDY    27  16  63 N17G26    30.14R WCI  14
TERRE HAUTE    CLOUDY    34  18  52 N10       30.12R WCI  26

$$

INZ030>032-037>040-046>048-054>057-064-065-280000-
CENTRAL INDIANA

CITY           SKY/WX    TMP DP  RH WIND       PRES   REMARKS
CP ATTERBURY + PTSUNNY   32  18  55 N16G23    30.08R WCI  21
COLUMBUS       PTSUNNY   32  14  47 NW16G22   30.08R WCI  21
FISHERS *+     CLOUDY    27  19  74 N7        30.09R WCI  19
FRANKFORT +    FLURRIES  28  20  72 NW16      30.12R WCI  17
INDIANAPOLIS   PTSUNNY   30  12  47 NW20      30.07R WCI  17
-EAGLE CREEK   CLOUDY    29  14  53 N16G26    30.08R WCI  17
KOKOMO *+        N/A     28  12  50 N14G22    30.10R WCI  17
MARION +       CLOUDY    29  12  48 NW13G20   30.08R WCI  19
MT COMFORT *+  MOSUNNY   30  10  43 NW20      30.08R WCI  18
SHELBYVILLE    CLOUDY    32  15  49 N14       30.07R WCI  22
ZIONSVILLE +   CLOUDY    30  18  60 N18       30.09R WCI  17

$$

INZ033-034-041-042-049-050-058-059-280000-
EAST CENTRAL INDIANA

CITY           SKY/WX    TMP DP  RH WIND       PRES   REMARKS
MUNCIE         CLOUDY    29  13  51 NW15      30.05R WCI  18

$$

INZ060-061-067>069-081>083-085>088-280000-
SOUTHWEST INDIANA

CITY           SKY/WX    TMP DP  RH WIND       PRES   REMARKS
EVANSVILLE     CLOUDY    39  20  46 N14       30.11R
HUNTINGBURG *+ PTSUNNY   36  21  55 NW13      30.10R
WASHINGTON +   CLOUDY    35  24  63 N17G23    30.11R WCI  24

$$

INZ062-063-066-070>080-084-089>092-280000-
SOUTH CENTRAL AND SOUTHEAST INDIANA

CITY           SKY/WX    TMP DP  RH WIND       PRES   REMARKS
BEDFORD +      CLOUDY    34  19  55 N9        30.07R WCI  26
BLOOMINGTON    CLOUDY    32  18  56 N9        30.07R WCI  24
NORTH VERNON + CLOUDY    32  19  59 NW9G17    30.07R WCI  24
SEYMOUR +      CLOUDY    36  19  51 N13       30.08R

$$




USA.gov is the U.S. government's official web portal to all federal, state and local government web resources and services.